Temp
-7 -7 -7 -7 -7 -7 -7 -7 -7 -7 -8 -8 -8 -8 -8 -9 -9 -9 -9 -9 -10 -10 -10 -10 -10 -10 -11 -10 -10 -10 -10 -11 -11
-7 -7 -7 -7 -8 -8 -8 -8 -8 -8 -8 -8 -9 -9 -9 -9 -10 -10 -10 -10 -10 -11 -11 -11 -11 -11 -11 -11 -10 -10 -10 -11 -11
-8 -8 -8 -8 -8 -8 -8 -8 -8 -8 -8 -9 -9 -10 -10 -10 -10 -11 -11 -11 -11 -11 -11 -11 -11 -11 -11 -11 -11 -11 -11 -11 -12
-9 -9 -9 -9 -9 -9 -9 -9 -9 -9 -9 -9 -10 -10 -11 -11 -11 -11 -11 -11 -11 -11 -11 -11 -11 -11 -11 -11 -11 -11 -11 -12 -12
-10 -10 -10 -10 -10 -10 -10 -10 -10 -10 -10 -10 -10 -11 -11 -11 -11 -11 -12 -11 -11 -12 -12 -12 -12 -12 -12 -12 -12 -12 -12 -12 -12
-10 -10 -10 -10 -10 -11 -10 -10 -10 -10 -10 -10 -10 -11 -11 -11 -12 -12 -12 -12 -12 -12 -12 -12 -12 -12 -12 -12 -12 -12 -12 -12 -12
-11 -11 -11 -11 -11 -11 -11 -11 -11 -11 -11 -11 -11 -11 -11 -11 -11 -12 -12 -12 -12 -12 -12 -12 -12 -12 -12 -13 -13 -12 -12 -12 -12
-11 -11 -11 -12 -12 -12 -12 -12 -12 -12 -12 -12 -12 -12 -12 -12 -12 -12 -12 -12 -12 -12 -12 -12 -12 -12 -13 -13 -13 -13 -13 -13 -13
-11 -11 -11 -11 -12 -12 -12 -13 -13 -13 -12 -12 -12 -12 -12 -12 -12 -12 -12 -12 -12 -12 -12 -12 -12 -13 -13 -13 -13 -13 -13 -13 -13
-11 -11 -11 -11 -11 -12 -12 -13 -13 -13 -13 -13 -13 -13 -12 -12 -12 -12 -12 -12 -12 -12 -12 -13 -13 -13 -13 -13 -13 -14 -14 -14 -14
-11 -11 -11 -11 -11 -11 -12 -13 -13 -13 -13 -13 -13 -13 -13 -13 -13 -13 -13 -13 -13 -13 -13 -13 -13 -13 -13 -14 -14 -14 -14 -14 -14
-11 -11 -11 -11 -11 -11 -12 -12 -13 -13 -13 -13 -13 -13 -13 -13 -13 -13 -13 -13 -13 -13 -13 -13 -13 -13 -14 -14 -14 -14 -14 -14 -14
-12 -12 -12 -12 -12 -12 -12 -12 -12 -13 -13 -13 -14 -14 -14 -14 -14 -14 -14 -14 -14 -14 -14 -13 -13 -14 -14 -14 -14 -14 -14 -14 -14
-12 -12 -12 -12 -12 -12 -12 -12 -12 -12 -13 -13 -13 -14 -14 -14 -14 -14 -14 -14 -14 -14 -14 -14 -14 -13 -14 -14 -14 -14 -14 -14 -14
-12 -12 -12 -12 -12 -12 -13 -13 -13 -13 -13 -13 -13 -13 -13 -13 -14 -14 -13 -13 -13 -14 -14 -14 -14 -14 -14 -14 -14 -14 -14 -14 -14
-12 -12 -12 -12 -12 -13 -13 -13 -13 -13 -13 -13 -13 -13 -13 -13 -13 -13 -14 -13 -14 -14 -14 -14 -14 -14 -14 -14 -14 -14 -14 -14 -14
-13 -13 -13 -13 -13 -13 -13 -13 -13 -13 -13 -13 -14 -13 -13 -14 -13 -14 -14 -14 -14 -14 -14 -14 -14 -14 -14 -14 -14 -14 -14 -14 -14
-13 -13 -13 -13 -13 -13 -13 -13 -13 -14 -13 -13 -13 -14 -14 -14 -14 -14 -14 -14 -14 -14 -14 -14 -14 -14 -14 -14 -14 -14 -14 -14 -14
-12 -13 -13 -13 -13 -13 -13 -13 -13 -14 -14 -14 -14 -14 -14 -14 -14 -14 -14 -15 -14 -14 -14 -14 -14 -14 -15 -15 -15 -15 -15 -15 -15
-13 -13 -13 -13 -13 -13 -14 -14 -14 -14 -14 -14 -14 -14 -14 -14 -14 -14 -14 -15 -15 -15 -14 -14 -14 -15 -15 -15 -15 -15 -15 -15 -15
Height
5878 5878 5878 5878 5878 5879 5879 5878 5878 5878 5878 5878 5877 5877 5877 5876 5876 5875 5875 5874 5874 5873 5873 5873 5872 5871 5870 5869 5867 5866 5864 5863 5863
5876 5876 5875 5875 5875 5875 5875 5875 5875 5875 5874 5873 5873 5872 5872 5871 5871 5871 5871 5870 5870 5870 5870 5869 5868 5867 5866 5864 5863 5861 5859 5858 5858
5873 5873 5873 5873 5872 5872 5871 5871 5870 5870 5870 5870 5869 5869 5868 5868 5867 5867 5867 5867 5867 5866 5866 5865 5863 5863 5862 5860 5858 5857 5855 5854 5854
5869 5870 5870 5870 5869 5868 5867 5867 5866 5866 5866 5865 5865 5865 5864 5864 5863 5864 5863 5862 5862 5862 5861 5860 5858 5857 5856 5855 5854 5852 5851 5850 5850
5865 5865 5865 5865 5865 5864 5864 5863 5862 5862 5862 5862 5861 5861 5860 5860 5859 5859 5859 5857 5857 5857 5855 5854 5853 5852 5851 5850 5849 5848 5846 5845 5845
5859 5860 5860 5860 5860 5859 5859 5858 5858 5858 5858 5858 5857 5857 5856 5856 5856 5855 5854 5853 5852 5852 5850 5849 5848 5847 5846 5845 5844 5843 5841 5841 5840
5854 5854 5854 5854 5854 5854 5854 5854 5854 5854 5853 5853 5853 5852 5852 5851 5850 5850 5849 5848 5847 5846 5845 5843 5842 5840 5839 5838 5837 5837 5836 5836 5835
5849 5850 5849 5849 5849 5849 5849 5849 5849 5849 5848 5848 5847 5847 5846 5845 5845 5844 5843 5842 5840 5839 5838 5837 5835 5834 5833 5832 5831 5831 5830 5829 5829
5845 5845 5844 5844 5843 5843 5844 5843 5843 5843 5842 5842 5841 5841 5841 5840 5839 5838 5837 5836 5835 5833 5832 5830 5829 5827 5827 5825 5825 5824 5823 5823 5822
5839 5839 5839 5838 5838 5838 5837 5837 5837 5836 5837 5837 5836 5836 5835 5834 5833 5832 5831 5830 5829 5827 5826 5824 5823 5822 5820 5819 5818 5817 5816 5816 5815
5834 5834 5833 5832 5832 5832 5831 5831 5831 5831 5831 5831 5830 5830 5829 5828 5827 5826 5825 5824 5823 5822 5820 5818 5816 5815 5814 5812 5811 5810 5809 5808 5807
5828 5828 5828 5826 5826 5825 5825 5825 5825 5825 5824 5824 5824 5823 5822 5822 5821 5820 5819 5818 5817 5816 5814 5812 5810 5808 5807 5805 5804 5802 5801 5800 5799
5820 5821 5821 5819 5820 5820 5819 5819 5819 5818 5817 5818 5817 5816 5816 5815 5814 5813 5812 5811 5810 5808 5807 5805 5803 5801 5799 5798 5797 5795 5793 5792 5791
5814 5814 5813 5813 5813 5813 5812 5812 5812 5812 5810 5810 5809 5808 5808 5808 5807 5806 5805 5804 5803 5801 5799 5797 5796 5794 5792 5791 5790 5788 5786 5785 5783
5806 5806 5806 5805 5806 5805 5805 5805 5805 5805 5804 5803 5802 5801 5800 5800 5799 5798 5797 5796 5795 5793 5792 5790 5788 5786 5785 5784 5782 5780 5779 5777 5775
5797 5797 5798 5798 5798 5798 5797 5797 5797 5797 5796 5796 5794 5792 5792 5792 5791 5791 5790 5789 5787 5786 5784 5782 5780 5778 5777 5776 5774 5773 5771 5769 5767
5788 5788 5789 5788 5789 5788 5789 5789 5788 5788 5788 5788 5786 5786 5785 5784 5783 5782 5782 5781 5779 5778 5776 5775 5773 5770 5768 5767 5766 5764 5762 5760 5757
5776 5776 5777 5778 5778 5779 5780 5780 5779 5779 5778 5778 5777 5777 5777 5775 5774 5774 5773 5772 5771 5769 5768 5766 5764 5762 5760 5758 5756 5754 5752 5749 5747
5765 5765 5767 5768 5769 5770 5771 5770 5769 5769 5770 5769 5769 5768 5767 5766 5765 5764 5763 5762 5762 5760 5759 5757 5755 5752 5749 5747 5745 5743 5740 5738 5735
5753 5753 5755 5756 5758 5758 5760 5760 5760 5759 5760 5759 5758 5758 5758 5758 5757 5756 5754 5752 5751 5750 5749 5746 5743 5740 5737 5735 5732 5730 5728 5726 5723
Wind_Speed
18 19 19 19 19 17 17 18 18 20 20 21 21 21 21 22 22 22 22 22 21 19 19 19 22 22 23 23 24 24 24 23 22
19 18 17 17 17 17 17 19 19 20 20 19 20 20 20 20 21 20 19 20 20 20 20 22 23 23 23 24 25 24 23 23 24
21 19 18 18 18 18 19 19 20 21 21 20 20 20 20 20 19 19 19 20 21 21 23 24 25 25 24 24 24 23 21 20 21
22 21 21 20 19 20 20 20 20 21 21 20 19 20 20 20 21 21 22 23 24 25 25 26 26 27 27 26 24 22 20 19 20
24 24 24 24 23 21 21 22 21 22 22 21 21 21 22 22 23 24 25 26 27 27 28 28 29 28 28 27 26 23 21 20 19
24 24 24 25 25 24 24 23 23 22 23 23 22 23 23 24 25 26 27 29 30 31 31 32 32 31 31 31 28 26 24 23 22
24 24 23 23 24 24 24 24 24 23 23 22 22 23 23 23 24 26 27 29 30 31 32 33 34 35 34 31 29 28 27 27 26
24 23 23 23 23 24 24 24 24 24 24 24 23 23 23 24 24 24 25 27 29 30 30 31 31 31 31 29 27 28 28 28 27
24 24 23 24 24 25 24 24 24 24 25 25 24 25 25 26 26 27 27 27 28 28 29 29 29 29 29 29 29 29 28 28 28
27 26 26 27 26 25 25 25 26 25 26 26 25 25 26 26 26 27 27 27 28 28 28 29 29 30 30 31 31 31 31 30 30
29 27 27 28 26 26 26 25 26 26 26 25 25 25 25 26 25 25 25 26 27 28 29 30 31 31 31 31 32 32 33 32 33
30 29 28 29 28 26 27 26 24 25 26 26 26 26 26 26 27 26 26 28 29 28 28 29 31 32 32 31 31 33 34 34 34
33 31 30 32 31 28 29 27 26 26 25 26 26 27 28 28 28 28 30 31 31 31 31 30 29 29 30 31 31 31 30 31 32
36 34 33 34 33 32 32 30 27 28 28 28 28 28 30 30 31 30 30 31 32 31 30 28 28 29 31 30 30 30 31 29 29
38 36 36 36 36 35 34 32 29 30 31 29 29 30 31 31 31 30 29 28 29 29 29 28 28 29 30 30 31 31 32 33 33
41 40 39 37 37 38 36 34 32 32 34 33 34 33 33 32 32 31 31 30 29 29 30 30 29 27 28 31 32 33 33 33 34
44 44 41 42 41 41 39 38 35 35 35 35 40 38 37 35 35 32 32 32 31 32 32 32 31 33 34 35 34 35 36 37 38
47 47 45 44 44 44 42 42 41 38 38 38 37 38 38 39 37 35 34 34 35 35 36 35 35 36 37 38 38 39 40 40 42
49 50 48 47 47 46 43 43 39 40 39 40 39 41 38 36 38 38 37 36 37 38 39 40 38 40 40 40 41 43 44 44 44
52 52 51 51 50 48 45 43 40 40 40 40 42 42 46 41 40 44 41 41 40 39 42 42 45 44 44 44 44 46 47 46 43
Wind_Direction
295 294 292 289 288 288 289 290 291 291 290 288 285 283 284 285 284 286 285 284 283 285 288 290 292 295 297 300 302 301 295 286 282
294 291 291 290 291 291 290 291 290 289 288 286 286 286 284 283 281 281 281 282 282 284 285 288 291 294 300 302 304 301 296 285 275
288 290 289 289 289 291 292 292 291 287 286 285 282 283 283 283 283 283 281 280 280 282 287 290 293 297 300 304 305 303 301 294 282
284 285 285 286 286 285 286 287 287 288 287 285 282 281 280 279 279 279 277 280 280 282 286 288 291 295 297 301 303 303 301 295 289
282 283 283 283 282 281 281 282 281 283 284 285 285 283 281 278 276 276 275 276 277 280 282 286 289 292 295 297 297 295 293 290 290
278 278 279 281 281 282 281 280 279 280 282 283 284 282 281 280 278 276 277 280 282 284 286 286 288 290 292 294 293 289 286 285 284
279 279 278 279 280 280 281 281 282 282 282 282 283 285 284 283 283 282 282 284 286 286 287 287 289 291 292 292 290 287 284 282 281
280 281 280 279 279 279 280 280 281 281 281 280 280 280 281 283 283 283 285 287 289 290 291 290 291 290 290 289 288 286 284 281 280
279 278 278 276 275 276 277 278 278 278 278 279 280 281 281 283 284 287 289 289 290 292 293 293 291 289 289 288 286 285 284 281 280
275 275 275 276 276 276 274 275 277 279 281 283 283 284 284 285 286 287 288 290 291 293 292 292 291 290 288 287 286 285 284 281 279
272 272 273 275 277 278 277 276 277 279 282 283 284 283 284 285 287 288 291 294 295 296 295 295 293 290 287 285 284 285 287 285 281
268 269 270 271 272 273 275 277 279 281 281 282 282 284 285 286 287 289 292 295 296 296 295 296 294 291 287 285 285 284 285 284 283
262 264 267 268 271 272 275 278 280 282 282 282 283 284 285 286 286 289 294 296 295 293 294 296 298 294 292 285 284 285 285 286 284
262 264 265 267 269 270 274 276 279 282 281 281 281 281 282 284 286 290 294 295 296 295 293 291 289 294 292 288 286 283 282 285 285
261 263 265 266 268 270 272 275 279 278 279 280 280 282 283 284 285 287 288 291 294 295 293 291 291 291 289 288 286 285 283 282 281
260 260 264 267 269 270 272 274 275 276 279 278 277 276 279 281 282 283 284 286 290 294 295 290 291 292 289 288 288 287 286 284 283
261 260 261 263 265 267 270 273 273 277 281 285 284 275 276 278 280 279 282 285 289 291 292 292 291 290 289 289 288 287 286 286 285
257 258 258 259 262 266 269 272 272 276 278 280 288 276 273 275 275 275 280 284 287 289 291 290 291 291 291 291 290 288 287 286 286
258 259 260 260 262 264 268 270 273 274 275 279 281 281 278 286 275 268 273 280 284 288 290 288 290 290 289 289 288 287 287 289 289
258 259 259 260 263 264 264 265 267 269 271 275 277 279 280 282 283 285 291 287 284 284 285 287 284 285 286 286 287 287 287 288 290